User: anonymous   Login
Location: Boiro
(42.6475°N, 8.8834°W)
Time: 01:16:48
(UTC+02:00)
Language:

UWE-3 - Orbit

View from above orbital plane
View from above orbital plane
View from above satellite
View from above satellite

Ground track
Ground track

The orbit data is extracted from the following two-line orbital elements,

1 39446U 13066AG  24115.84661674  .00011819  00000-0  13305-2 0  9991
2 39446  97.7774  66.7654 0062407  36.3698 324.1734 14.85376171561376
Epoch (UTC): 24 April 2024 20:19:07
Eccentricity: 0.0062407
inclination: 97.7774°
perigee height: 569 km
apogee height: 656 km
right ascension of ascending node: 66.7654°
argument of perigee: 36.3698°
revolutions per day: 14.85376171
mean anomaly at epoch: 324.1734°
orbit number at epoch: 56137

The dashed part of the orbit path shows where the satellite is in the earth's shadow,  

DLR